| time (UTC) | temp C | wind direction | speed KPH | gust KPH | rain 1hr cm | rain 24hr cm | rain mn cm | humidity % | barometer mb |
| 20260904095709 | 27 | 166 | 6.4 | 14.5 | 0.00 | 0.18 | 0.00 | 71 | 1010.8 |
| 20260904095209 | 27 | 187 | 6.4 | 16.1 | 0.00 | 0.18 | 0.00 | 71 | 1010.8 |
| 20260904093709 | 27 | 201 | 11.3 | 24.1 | 0.00 | 0.18 | 0.00 | 71 | 1010.6 |
| 20260904093208 | 27 | 171 | 4.8 | 17.7 | 0.00 | 0.18 | 0.00 | 71 | 1010.6 |
| 20260904092708 | 27 | 192 | 8.0 | 20.9 | 0.00 | 0.18 | 0.00 | 69 | 1010.6 |
| 20260904092210 | 27 | 198 | 8.0 | 24.1 | 0.00 | 0.18 | 0.00 | 69 | 1010.5 |
| 20260904091708 | 27 | 209 | 9.7 | 24.1 | 0.00 | 0.18 | 0.00 | 68 | 1010.4 |
| 20260904091209 | 28 | 165 | 8.0 | 22.5 | 0.00 | 0.18 | 0.00 | 68 | 1010.5 |
| 20260904090709 | 28 | 85 | 9.7 | 22.5 | 0.00 | 0.18 | 0.00 | 68 | 1010.4 |
| 20260904090208 | 27 | 226 | 9.7 | 22.5 | 0.00 | 0.18 | 0.00 | 69 | 1010.3 |
| 20260904085708 | 27 | 207 | 12.9 | 22.5 | 0.00 | 0.18 | 0.00 | 70 | 1010.3 |
| 20260904085208 | 27 | 215 | 9.7 | 20.9 | 0.00 | 0.18 | 0.00 | 70 | 1010.2 |
| 20260904084708 | 27 | 198 | 9.7 | 17.7 | 0.00 | 0.18 | 0.00 | 70 | 1010.2 |
| 20260904084208 | 27 | 135 | 9.7 | 20.9 | 0.00 | 0.18 | 0.00 | 69 | 1010.3 |
| 20260904083707 | 27 | 196 | 8.0 | 24.1 | 0.00 | 0.18 | 0.00 | 69 | 1010.3 |
| 20260904083209 | 27 | 221 | 11.3 | 24.1 | 0.00 | 0.18 | 0.00 | 69 | 1010.2 |
| 20260904082707 | 27 | 211 | 11.3 | 20.9 | 0.00 | 0.18 | 0.00 | 68 | 1010.2 |
| 20260904082210 | 27 | 131 | 9.7 | 25.7 | 0.00 | 0.18 | 0.00 | 68 | 1010.2 |
| 20260904081708 | 27 | 178 | 9.7 | 25.7 | 0.00 | 0.18 | 0.00 | 68 | 1010.0 |
| 20260904081208 | 27 | 173 | 9.7 | 24.1 | 0.00 | 0.18 | 0.00 | 69 | 1010.0 |
| 20260904080707 | 27 | 198 | 11.3 | 24.1 | 0.00 | 0.18 | 0.00 | 69 | 1010.0 |
| 20260904080207 | 27 | 196 | 12.9 | 25.7 | 0.00 | 0.18 | 0.00 | 69 | 1010.0 |
| 20260904075707 | 27 | 193 | 12.9 | 25.7 | 0.00 | 0.18 | 0.00 | 68 | 1010.2 |
| 20260904075207 | 27 | 198 | 14.5 | 25.7 | 0.00 | 0.18 | 0.00 | 67 | 1010.2 |
| 20260904074707 | 27 | 169 | 12.9 | 27.4 | 0.00 | 0.18 | 0.00 | 66 | 1010.2 |
| 20260904074207 | 28 | 141 | 12.9 | 27.4 | 0.00 | 0.18 | 0.00 | 65 | 1010.3 |
| 20260904073707 | 28 | 218 | 9.7 | 20.9 | 0.00 | 0.18 | 0.00 | 64 | 1010.3 |
| 20260904073206 | 28 | 238 | 11.3 | 19.3 | 0.00 | 0.18 | 0.00 | 65 | 1010.3 |
| 20260904072706 | 28 | 221 | 8.0 | 19.3 | 0.00 | 0.18 | 0.00 | 64 | 1010.0 |
| 20260904072208 | 28 | 193 | 9.7 | 20.9 | 0.00 | 0.18 | 0.00 | 64 | 1010.2 |
| 20260904071706 | 28 | 205 | 6.4 | 20.9 | 0.00 | 0.18 | 0.00 | 64 | 1010.2 |
| 20260904071206 | 28 | 231 | 9.7 | 22.5 | 0.00 | 0.18 | 0.00 | 64 | 1010.3 |
| 20260904070206 | 28 | 147 | 9.7 | 17.7 | 0.00 | 0.18 | 0.00 | 63 | 1010.2 |
| 20260904065706 | 28 | 221 | 8.0 | 24.1 | 0.00 | 0.18 | 0.00 | 63 | 1010.2 |
| 20260904065206 | 28 | 226 | 6.4 | 24.1 | 0.00 | 0.18 | 0.00 | 63 | 1010.3 |
| 20260904064706 | 28 | 189 | 6.4 | 17.7 | 0.00 | 0.18 | 0.00 | 63 | 1010.3 |
| 20260904064205 | 28 | 196 | 8.0 | 20.9 | 0.00 | 0.18 | 0.00 | 63 | 1010.3 |
| 20260904063705 | 28 | 147 | 8.0 | 20.9 | 0.00 | 0.18 | 0.00 | 63 | 1010.3 |
| 20260904063205 | 28 | 146 | 6.4 | 19.3 | 0.00 | 0.18 | 0.00 | 63 | 1010.2 |
| 20260904062705 | 28 | 202 | 6.4 | 19.3 | 0.00 | 0.18 | 0.00 | 63 | 1010.3 |
| 20260904062206 | 28 | 61 | 8.0 | 16.1 | 0.00 | 0.18 | 0.00 | 63 | 1010.3 |
| 20260904061705 | 28 | 178 | 8.0 | 14.5 | 0.00 | 0.18 | 0.00 | 63 | 1010.2 |
| 20260904061205 | 28 | 147 | 8.0 | 20.9 | 0.00 | 0.18 | 0.00 | 62 | 1010.0 |
| 20260904060705 | 28 | 137 | 9.7 | 20.9 | 0.00 | 0.18 | 0.00 | 62 | 1010.0 |
| 20260904060204 | 28 | 168 | 9.7 | 19.3 | 0.00 | 0.18 | 0.00 | 62 | 1010.2 |
| 20260904055704 | 28 | 218 | 9.7 | 20.9 | 0.00 | 0.18 | 0.00 | 62 | 1010.2 |
| 20260904055204 | 28 | 165 | 11.3 | 20.9 | 0.00 | 0.18 | 0.00 | 62 | 1010.2 |
| 20260904054204 | 28 | 163 | 11.3 | 19.3 | 0.00 | 0.18 | 0.00 | 62 | 1010.0 |
| 20260904053704 | 28 | 173 | 8.0 | 16.1 | 0.00 | 0.18 | 0.00 | 62 | 1010.0 |
| 20260904052703 | 28 | 211 | 8.0 | 20.9 | 0.00 | 0.18 | 0.00 | 62 | 1009.9 |
| 20260904052204 | 28 | 175 | 6.4 | 20.9 | 0.00 | 0.18 | 0.00 | 63 | 1009.8 |
| 20260904051203 | 28 | 135 | 6.4 | 19.3 | 0.00 | 0.18 | 0.00 | 63 | 1009.8 |
| 20260904050700 | 28 | 178 | 6.4 | 25.7 | 0.00 | 0.18 | 0.00 | 63 | 1009.8 |
| 20260904050200 | 28 | 178 | 9.7 | 25.7 | 0.00 | 0.18 | 0.00 | 62 | 1009.8 |
| 20260904045701 | 28 | 183 | 6.4 | 20.9 | 0.00 | 0.18 | 0.18 | 62 | 1009.8 |
| 20260904044700 | 28 | 182 | 8.0 | 14.5 | 0.00 | 0.18 | 0.18 | 62 | 1009.7 |
| 20260904043700 | 29 | 123 | 9.7 | 17.7 | 0.00 | 0.18 | 0.18 | 63 | 1009.7 |
| 20260904043200 | 29 | 225 | 8.0 | 19.3 | 0.00 | 0.18 | 0.18 | 62 | 1009.7 |
| 20260904042200 | 29 | 170 | 8.0 | 19.3 | 0.00 | 0.18 | 0.18 | 62 | 1009.7 |
| 20260904041700 | 29 | 128 | 6.4 | 19.3 | 0.00 | 0.18 | 0.18 | 62 | 1009.7 |
| 20260904040659 | 29 | 132 | 8.0 | 16.1 | 0.00 | 0.18 | 0.18 | 62 | 1009.8 |
| 20260904040159 | 29 | 153 | 8.0 | 20.9 | 0.00 | 0.18 | 0.18 | 62 | 1009.8 |
| 20260904034659 | 29 | 185 | 6.4 | 22.5 | 0.00 | 0.18 | 0.18 | 62 | 1009.8 |
| 20260904033157 | 30 | 221 | 8.0 | 16.1 | 0.00 | 0.18 | 0.18 | 62 | 1009.8 |
| 20260904032657 | 30 | 153 | 8.0 | 17.7 | 0.00 | 0.18 | 0.18 | 62 | 1009.7 |
| 20260904031155 | 30 | 144 | 8.0 | 17.7 | 0.00 | 0.18 | 0.18 | 61 | 1009.7 |
| 20260904030156 | 30 | 158 | 9.7 | 20.9 | 0.00 | 0.18 | 0.18 | 61 | 1009.6 |
| 20260904025655 | 30 | 173 | 6.4 | 19.3 | 0.00 | 0.18 | 0.18 | 62 | 1009.6 |
| 20260904024655 | 30 | 123 | 6.4 | 14.5 | 0.00 | 0.18 | 0.18 | 62 | 1009.6 |
| 20260904024153 | 30 | 178 | 6.4 | 16.1 | 0.00 | 0.18 | 0.18 | 62 | 1009.6 |
| 20260904023153 | 30 | 147 | 6.4 | 19.3 | 0.00 | 0.18 | 0.18 | 61 | 1009.5 |
| 20260904022653 | 30 | 178 | 6.4 | 19.3 | 0.00 | 0.18 | 0.18 | 61 | 1009.5 |
| 20260904022155 | 30 | 187 | 8.0 | 17.7 | 0.00 | 0.18 | 0.18 | 61 | 1009.5 |
| 20260904021653 | 30 | 124 | 8.0 | 16.1 | 0.00 | 0.18 | 0.18 | 61 | 1009.5 |
| 20260904021153 | 30 | 141 | 8.0 | 16.1 | 0.00 | 0.18 | 0.18 | 61 | 1009.4 |
| 20260904020653 | 30 | 177 | 6.4 | 16.1 | 0.00 | 0.18 | 0.18 | 61 | 1009.3 |
| 20260904015653 | 31 | 177 | 4.8 | 16.1 | 0.00 | 0.18 | 0.18 | 60 | 1009.4 |
| 20260904014652 | 31 | 148 | 4.8 | 17.7 | 0.00 | 0.18 | 0.18 | 59 | 1009.3 |
| 20260904014152 | 31 | 188 | 6.4 | 17.7 | 0.00 | 0.18 | 0.18 | 59 | 1009.1 |
| 20260904013651 | 31 | 142 | 6.4 | 14.5 | 0.00 | 0.18 | 0.18 | 59 | 1009.1 |
| 20260904013152 | 31 | 165 | 6.4 | 16.1 | 0.00 | 0.18 | 0.18 | 59 | 1009.0 |
| 20260904012152 | 31 | 178 | 4.8 | 19.3 | 0.00 | 0.18 | 0.18 | 58 | 1009.0 |
| 20260904011651 | 31 | 153 | 4.8 | 19.3 | 0.00 | 0.18 | 0.18 | 58 | 1008.9 |
| 20260904011151 | 31 | 144 | 6.4 | 22.5 | 0.00 | 0.18 | 0.18 | 58 | 1008.8 |
| 20260904010650 | 32 | 131 | 8.0 | 22.5 | 0.00 | 0.18 | 0.18 | 58 | 1008.7 |
| 20260904010150 | 32 | 128 | 6.4 | 19.3 | 0.00 | 0.18 | 0.18 | 58 | 1008.7 |
| 20260904005650 | 32 | 178 | 9.7 | 17.7 | 0.00 | 0.18 | 0.18 | 58 | 1008.7 |
| 20260904005151 | 32 | 146 | 8.0 | 17.7 | 0.00 | 0.18 | 0.18 | 58 | 1008.7 |
| 20260904004150 | 32 | 140 | 4.8 | 14.5 | 0.00 | 0.18 | 0.18 | 57 | 1008.5 |
| 20260904003650 | 32 | 210 | 4.8 | 19.3 | 0.00 | 0.18 | 0.18 | 56 | 1008.4 |
| 20260904003149 | 32 | 138 | 6.4 | 19.3 | 0.00 | 0.18 | 0.18 | 56 | 1008.4 |
| 20260904002650 | 33 | 212 | 6.4 | 16.1 | 0.00 | 0.18 | 0.18 | 55 | 1008.4 |
| 20260904001649 | 33 | 175 | 9.7 | 19.3 | 0.00 | 0.18 | 0.18 | 54 | 1008.4 |
| 20260904001149 | 33 | 166 | 8.0 | 19.3 | 0.00 | 0.18 | 0.18 | 54 | 1008.3 |
| 20260904000650 | 33 | 138 | 8.0 | 19.3 | 0.00 | 0.18 | 0.18 | 54 | 1008.4 |
| 20260903235649 | 33 | 162 | 11.3 | 25.7 | 0.00 | 0.18 | 0.18 | 53 | 1008.3 |
| 20260903235149 | 33 | 187 | 6.4 | 19.3 | 0.00 | 0.18 | 0.18 | 53 | 1008.3 |
| 20260903234648 | 33 | 165 | 11.3 | 25.7 | 0.00 | 0.18 | 0.18 | 52 | 1008.3 |
| 20260903234148 | 33 | 178 | 12.9 | 25.7 | 0.00 | 0.18 | 0.18 | 52 | 1008.3 |
| 20260903233148 | 34 | 163 | 11.3 | 20.9 | 0.00 | 0.18 | 0.18 | 52 | 1008.2 |
| 20260903232648 | 34 | 171 | 6.4 | 16.1 | 0.00 | 0.18 | 0.18 | 53 | 1008.3 |
| 20260903232149 | 34 | 182 | 8.0 | 19.3 | 0.00 | 0.18 | 0.18 | 52 | 1008.2 |
| 20260903231643 | 34 | 177 | 11.3 | 24.1 | 0.00 | 0.18 | 0.18 | 51 | 1008.1 |
| 20260903231144 | 34 | 166 | 16.1 | 25.7 | 0.00 | 0.18 | 0.18 | 51 | 1008.1 |
| 20260903230643 | 34 | 144 | 12.9 | 25.7 | 0.00 | 0.18 | 0.18 | 51 | 1008.2 |
| 20260903230143 | 34 | 186 | 12.9 | 27.4 | 0.00 | 0.18 | 0.18 | 51 | 1008.2 |
| 20260903225142 | 35 | 171 | 9.7 | 19.3 | 0.00 | 0.18 | 0.18 | 52 | 1008.1 |
| 20260903224642 | 35 | 226 | 8.0 | 17.7 | 0.00 | 0.18 | 0.18 | 52 | 1008.1 |
| 20260903224141 | 35 | 171 | 8.0 | 17.7 | 0.00 | 0.18 | 0.18 | 53 | 1008.1 |
| 20260903223641 | 35 | 201 | 8.0 | 22.5 | 0.00 | 0.18 | 0.18 | 53 | 1008.1 |
| 20260903222641 | 35 | 178 | 9.7 | 19.3 | 0.00 | 0.18 | 0.18 | 53 | 1008.1 |
| 20260903222142 | 35 | 173 | 8.0 | 20.9 | 0.00 | 0.18 | 0.18 | 53 | 1008.1 |
| 20260903221641 | 35 | 208 | 14.5 | 20.9 | 0.00 | 0.18 | 0.18 | 52 | 1008.1 |
| 20260903221140 | 35 | 200 | 11.3 | 29.0 | 0.00 | 0.18 | 0.18 | 53 | 1008.1 |
| 20260903220640 | 35 | 161 | 8.0 | 29.0 | 0.00 | 0.18 | 0.18 | 52 | 1008.2 |
| 20260903215639 | 35 | 182 | 11.3 | 27.4 | 0.00 | 0.18 | 0.18 | 52 | 1008.1 |
| 20260903215139 | 35 | 160 | 16.1 | 27.4 | 0.00 | 0.18 | 0.18 | 51 | 1008.3 |
| 20260903214638 | 35 | 155 | 11.3 | 24.1 | 0.00 | 0.18 | 0.18 | 52 | 1008.0 |
| 20260903214139 | 35 | 203 | 9.7 | 19.3 | 0.00 | 0.18 | 0.18 | 52 | 1008.1 |
| 20260903213638 | 35 | 207 | 9.7 | 19.3 | 0.00 | 0.18 | 0.18 | 51 | 1008.1 |
| 20260903212637 | 35 | 128 | 12.9 | 25.7 | 0.00 | 0.18 | 0.18 | 51 | 1008.1 |
| 20260903212138 | 35 | 202 | 14.5 | 30.6 | 0.00 | 0.18 | 0.18 | 50 | 1008.1 |
| 20260903211636 | 35 | 209 | 11.3 | 30.6 | 0.00 | 0.18 | 0.18 | 49 | 1008.1 |
| 20260903211136 | 35 | 126 | 17.7 | 30.6 | 0.00 | 0.18 | 0.18 | 49 | 1008.1 |
| 20260903210136 | 35 | 187 | 12.9 | 27.4 | 0.00 | 0.18 | 0.18 | 50 | 1008.2 |
| 20260903205636 | 35 | 229 | 9.7 | 25.7 | 0.00 | 0.18 | 0.18 | 51 | 1008.3 |
| 20260903205135 | 35 | 155 | 11.3 | 25.7 | 0.00 | 0.18 | 0.18 | 51 | 1008.1 |
| 20260903204636 | 35 | 193 | 12.9 | 24.1 | 0.00 | 0.18 | 0.18 | 50 | 1008.3 |
| 20260903204136 | 35 | 167 | 12.9 | 24.1 | 0.00 | 0.18 | 0.18 | 51 | 1008.3 |
| 20260903203634 | 35 | 183 | 12.9 | 20.9 | 0.00 | 0.18 | 0.18 | 52 | 1008.4 |
| 20260903203135 | 35 | 75 | 12.9 | 20.9 | 0.00 | 0.18 | 0.18 | 51 | 1008.4 |
| 20260903202634 | 35 | 185 | 8.0 | 25.7 | 0.00 | 0.18 | 0.18 | 51 | 1008.4 |
| 20260903202136 | 35 | 162 | 12.9 | 25.7 | 0.00 | 0.18 | 0.18 | 51 | 1008.6 |
| 20260903201634 | 35 | 198 | 14.5 | 25.7 | 0.00 | 0.18 | 0.18 | 50 | 1008.6 |
| 20260903201134 | 35 | 193 | 9.7 | 22.5 | 0.00 | 0.18 | 0.18 | 52 | 1008.7 |
| 20260903200634 | 34 | 182 | 11.3 | 22.5 | 0.00 | 0.18 | 0.18 | 53 | 1008.7 |
| 20260903200133 | 34 | 205 | 11.3 | 29.0 | 0.00 | 0.18 | 0.18 | 55 | 1008.7 |
| 20260903195633 | 34 | 198 | 8.0 | 29.0 | 0.00 | 0.18 | 0.18 | 55 | 1008.8 |
| 20260903195134 | 34 | 223 | 11.3 | 30.6 | 0.00 | 0.18 | 0.18 | 56 | 1008.8 |
| 20260903194633 | 34 | 190 | 16.1 | 30.6 | 0.00 | 0.18 | 0.18 | 55 | 1008.8 |
| 20260903194133 | 33 | 140 | 11.3 | 20.9 | 0.00 | 0.18 | 0.18 | 56 | 1009.0 |
| 20260903193633 | 33 | 207 | 8.0 | 22.5 | 0.00 | 0.18 | 0.18 | 57 | 1009.0 |
| 20260903193132 | 33 | 195 | 9.7 | 22.5 | 0.00 | 0.18 | 0.18 | 57 | 1009.1 |
| 20260903192632 | 33 | 156 | 8.0 | 22.5 | 0.00 | 0.18 | 0.18 | 57 | 1009.1 |
| 20260903192134 | 33 | 162 | 9.7 | 24.1 | 0.00 | 0.18 | 0.18 | 58 | 1009.0 |
| 20260903191632 | 33 | 178 | 11.3 | 24.1 | 0.00 | 0.18 | 0.18 | 57 | 1009.0 |
| 20260903190632 | 33 | 153 | 11.3 | 25.7 | 0.00 | 0.18 | 0.18 | 58 | 1009.1 |
| 20260903190131 | 33 | 169 | 12.9 | 24.1 | 0.00 | 0.18 | 0.18 | 58 | 1009.3 |
| 20260903185631 | 33 | 154 | 8.0 | 20.9 | 0.00 | 0.18 | 0.18 | 58 | 1009.4 |
| 20260903184630 | 32 | 147 | 9.7 | 22.5 | 0.00 | 0.18 | 0.18 | 58 | 1009.4 |
| 20260903184130 | 32 | 189 | 11.3 | 25.7 | 0.00 | 0.18 | 0.18 | 58 | 1009.7 |
| 20260903183630 | 32 | 162 | 11.3 | 25.7 | 0.00 | 0.18 | 0.18 | 59 | 1009.7 |
| 20260903183130 | 32 | 151 | 9.7 | 20.9 | 0.00 | 0.18 | 0.18 | 58 | 1009.7 |
| 20260903182630 | 32 | 195 | 9.7 | 19.3 | 0.00 | 0.18 | 0.18 | 60 | 1009.8 |
| 20260903182132 | 32 | 187 | 8.0 | 19.3 | 0.00 | 0.18 | 0.18 | 60 | 1009.8 |
| 20260903181630 | 32 | 195 | 11.3 | 19.3 | 0.00 | 0.18 | 0.18 | 58 | 1010.0 |
| 20260903181129 | 32 | 126 | 11.3 | 20.9 | 0.00 | 0.18 | 0.18 | 57 | 1009.9 |
| 20260903180129 | 32 | 196 | 9.7 | 22.5 | 0.00 | 0.18 | 0.18 | 59 | 1010.3 |
| 20260903175628 | 32 | 217 | 8.0 | 27.4 | 0.00 | 0.18 | 0.18 | 58 | 1010.4 |
| 20260903175129 | 32 | 182 | 12.9 | 27.4 | 0.00 | 0.18 | 0.18 | 58 | 1010.3 |
| 20260903174628 | 32 | 135 | 9.7 | 17.7 | 0.00 | 0.18 | 0.18 | 59 | 1010.3 |
| 20260903172628 | 31 | 187 | 8.0 | 20.9 | 0.00 | 0.18 | 0.18 | 62 | 1010.4 |
| 20260903172129 | 31 | 195 | 9.7 | 19.3 | 0.00 | 0.18 | 0.18 | 61 | 1010.2 |
| 20260903171127 | 30 | 147 | 8.0 | 19.3 | 0.00 | 0.18 | 0.18 | 64 | 1010.3 |
| 20260903170627 | 30 | 175 | 9.7 | 17.7 | 0.00 | 0.18 | 0.18 | 65 | 1010.3 |
| 20260903170126 | 30 | 225 | 8.0 | 16.1 | 0.00 | 0.18 | 0.18 | 67 | 1010.4 |
| 20260903165626 | 29 | 189 | 8.0 | 16.1 | 0.00 | 0.18 | 0.18 | 68 | 1010.4 |
| 20260903165125 | 28 | 186 | 9.7 | 16.1 | 0.00 | 0.18 | 0.18 | 69 | 1010.5 |
| 20260903164626 | 28 | 123 | 6.4 | 14.5 | 0.00 | 0.18 | 0.18 | 71 | 1010.5 |
| 20260903164126 | 28 | 137 | 6.4 | 14.5 | 0.00 | 0.18 | 0.18 | 70 | 1010.6 |
| 20260903163626 | 28 | 178 | 6.4 | 16.1 | 0.00 | 0.18 | 0.18 | 69 | 1010.6 |
| 20260903163126 | 28 | 135 | 8.0 | 17.7 | 0.00 | 0.18 | 0.18 | 68 | 1010.6 |
| 20260903162625 | 28 | 178 | 6.4 | 11.3 | 0.00 | 0.18 | 0.18 | 69 | 1010.6 |
| 20260903162126 | 28 | 175 | 4.8 | 14.5 | 0.00 | 0.18 | 0.18 | 70 | 1010.8 |
| 20260903161124 | 27 | 144 | 6.4 | 14.5 | 0.00 | 0.18 | 0.18 | 70 | 1010.5 |
| 20260903160625 | 27 | 128 | 6.4 | 14.5 | 0.00 | 0.18 | 0.18 | 70 | 1010.6 |
| 20260903160124 | 27 | 128 | 6.4 | 12.9 | 0.00 | 0.18 | 0.18 | 70 | 1010.5 |
| 20260903155624 | 27 | 178 | 3.2 | 14.5 | 0.00 | 0.18 | 0.18 | 70 | 1010.5 |
| 20260903155123 | 27 | 137 | 6.4 | 14.5 | 0.00 | 0.18 | 0.18 | 70 | 1010.5 |
| 20260903154624 | 27 | 118 | 6.4 | 12.9 | 0.00 | 0.18 | 0.18 | 71 | 1010.5 |
| 20260903154123 | 27 | 51 | 4.8 | 17.7 | 0.00 | 0.18 | 0.18 | 71 | 1010.5 |
| 20260903153123 | 27 | 165 | 9.7 | 16.1 | 0.00 | 0.18 | 0.18 | 72 | 1010.4 |
| 20260903152622 | 27 | 178 | 6.4 | 16.1 | 0.00 | 0.18 | 0.18 | 73 | 1010.6 |
| 20260903152125 | 27 | 160 | 9.7 | 19.3 | 0.00 | 0.18 | 0.18 | 73 | 1010.5 |
| 20260903151622 | 27 | 129 | 6.4 | 19.3 | 0.00 | 0.18 | 0.18 | 72 | 1010.5 |
| 20260903150622 | 26 | 130 | 9.7 | 16.1 | 0.03 | 0.18 | 0.18 | 75 | 1010.6 |
| 20260903145621 | 26 | 108 | 3.2 | 8.0 | 0.03 | 0.18 | 0.18 | 78 | 1010.7 |
| 20260903145121 | 26 | 126 | 3.2 | 4.8 | 0.03 | 0.18 | 0.18 | 77 | 1010.9 |
| 20260903144620 | 26 | 51 | 1.6 | 3.2 | 0.03 | 0.18 | 0.18 | 78 | 1011.1 |
| 20260903144121 | 26 | 239 | 1.6 | 6.4 | 0.03 | 0.18 | 0.18 | 77 | 1011.1 |
| 20260903143621 | 26 | 129 | 1.6 | 8.0 | 0.03 | 0.18 | 0.18 | 76 | 1010.9 |
| 20260903143121 | 26 | 51 | 1.6 | 8.0 | 0.03 | 0.18 | 0.18 | 77 | 1010.7 |
| 20260903142620 | 26 | 134 | 3.2 | 11.3 | 0.03 | 0.18 | 0.18 | 77 | 1010.6 |
| 20260903142119 | 26 | 137 | 4.8 | 14.5 | 0.03 | 0.18 | 0.18 | 76 | 1010.5 |
| 20260903141618 | 26 | 51 | 3.2 | 14.5 | 0.03 | 0.18 | 0.18 | 75 | 1010.5 |
| 20260903141119 | 26 | 156 | 6.4 | 12.9 | 0.03 | 0.18 | 0.18 | 75 | 1010.5 |
| 20260903140617 | 26 | 192 | 6.4 | 14.5 | 0.00 | 0.15 | 0.15 | 77 | 1010.4 |
| 20260903140117 | 26 | 221 | 6.4 | 14.5 | 0.00 | 0.15 | 0.15 | 79 | 1010.3 |
| 20260903135617 | 25 | 163 | 4.8 | 11.3 | 0.00 | 0.15 | 0.15 | 82 | 1010.3 |
| 20260903135117 | 25 | 157 | 3.2 | 6.4 | 0.03 | 0.15 | 0.15 | 84 | 1010.4 |
| 20260903134616 | 24 | 205 | 1.6 | 6.4 | 0.03 | 0.15 | 0.15 | 86 | 1010.3 |
| 20260903134116 | 24 | 51 | 1.6 | 6.4 | 0.08 | 0.15 | 0.15 | 86 | 1010.2 |
| 20260903133616 | 23 | 165 | 1.6 | 6.4 | 0.08 | 0.15 | 0.15 | 86 | 1010.3 |
| 20260903133117 | 23 | 142 | 3.2 | 6.4 | 0.10 | 0.15 | 0.15 | 86 | 1010.3 |
| 20260903132616 | 23 | 131 | 3.2 | 9.7 | 0.13 | 0.15 | 0.15 | 87 | 1010.4 |
| 20260903132115 | 23 | 121 | 3.2 | 9.7 | 0.15 | 0.15 | 0.15 | 87 | 1010.5 |
| 20260903131615 | 23 | 193 | 3.2 | 11.3 | 0.15 | 0.15 | 0.15 | 86 | 1010.5 |
| 20260903131115 | 23 | 144 | 6.4 | 11.3 | 0.15 | 0.15 | 0.15 | 86 | 1010.5 |
| 20260903130616 | 23 | 139 | 1.6 | 4.8 | 0.15 | 0.15 | 0.15 | 86 | 1010.6 |
| 20260903125614 | 23 | 162 | 1.6 | 4.8 | 0.15 | 0.15 | 0.15 | 85 | 1010.6 |
| 20260903125113 | 23 | 102 | 1.6 | 4.8 | 0.13 | 0.13 | 0.15 | 85 | 1010.7 |
| 20260903124613 | 23 | 129 | 3.2 | 6.4 | 0.13 | 0.13 | 0.13 | 84 | 1010.9 |
| 20260903123113 | 24 | 279 | 4.8 | 11.3 | 0.05 | 0.05 | 0.05 | 83 | 1011.3 |
| 20260903122113 | 24 | 137 | 0.0 | 3.2 | 0.00 | 0.00 | 0.00 | 82 | 1010.8 |
| 20260903121612 | 24 | 26 | 1.6 | 3.2 | 0.00 | 0.00 | 0.00 | 81 | 1010.8 |
| 20260903121112 | 24 | 9 | 1.6 | 3.2 | 0.00 | 0.00 | 0.00 | 81 | 1010.9 |
| 20260903120613 | 24 | 9 | 1.6 | 4.8 | 0.00 | 0.00 | 0.00 | 81 | 1010.8 |
| 20260903120112 | 24 | 344 | 3.2 | 4.8 | 0.00 | 0.00 | 0.00 | 80 | 1010.8 |
| 20260903115612 | 24 | 325 | 0.0 | 6.4 | 0.00 | 0.00 | 0.00 | 79 | 1010.7 |
| 20260903115112 | 25 | 70 | 3.2 | 6.4 | 0.00 | 0.00 | 0.00 | 79 | 1010.6 |
| 20260903114612 | 25 | 129 | 3.2 | 4.8 | 0.00 | 0.00 | 0.00 | 79 | 1010.6 |
| 20260903114113 | 25 | 105 | 1.6 | 4.8 | 0.00 | 0.00 | 0.00 | 78 | 1010.6 |
| 20260903113611 | 25 | 9 | 0.0 | 6.4 | 0.00 | 0.00 | 0.00 | 78 | 1010.7 |
| 20260903113111 | 25 | 93 | 1.6 | 8.0 | 0.00 | 0.00 | 0.00 | 77 | 1010.5 |
| 20260903112611 | 25 | 111 | 4.8 | 8.0 | 0.00 | 0.00 | 0.00 | 76 | 1010.4 |
| 20260903112111 | 25 | 149 | 3.2 | 6.4 | 0.00 | 0.00 | 0.00 | 76 | 1010.3 |
| 20260903111610 | 25 | 153 | 3.2 | 6.4 | 0.00 | 0.00 | 0.00 | 75 | 1010.2 |
| 20260903111110 | 25 | 146 | 3.2 | 8.0 | 0.00 | 0.00 | 0.00 | 75 | 1010.2 |
| 20260903110610 | 25 | 142 | 4.8 | 11.3 | 0.00 | 0.00 | 0.00 | 75 | 1010.2 |
| 20260903105609 | 25 | 153 | 3.2 | 8.0 | 0.00 | 0.00 | 0.00 | 74 | 1010.2 |
| 20260903105105 | 25 | 178 | 1.6 | 4.8 | 0.00 | 0.00 | 0.00 | 74 | 1010.2 |
| 20260903104605 | 26 | 108 | 1.6 | 6.4 | 0.00 | 0.00 | 0.00 | 73 | 1010.4 |
| 20260903104107 | 26 | 32 | 1.6 | 6.4 | 0.00 | 0.00 | 0.00 | 72 | 1010.3 |
| 20260903102605 | 26 | 93 | 1.6 | 9.7 | 0.00 | 0.00 | 0.00 | 70 | 1010.6 |
| 20260903101604 | 26 | 238 | 6.4 | 19.3 | 0.00 | 0.00 | 0.00 | 67 | 1010.6 |
| 20260903101104 | 27 | 218 | 11.3 | 19.3 | 0.00 | 0.00 | 0.00 | 65 | 1010.6 |
| 20260903100603 | 27 | 194 | 9.7 | 17.7 | 0.00 | 0.00 | 0.00 | 64 | 1010.7 |